Weather History for KTMB - October, 2011

Change the Weather History Date:

Monday, October 24, 2011

  Actual Average Record
Temperature  
Mean Temperature 76 °F -  
Max Temperature 84 °F 83 °F 89 °F (1990)
Min Temperature 71 °F 67 °F 59 °F (1999)
Cooling Degree Days 12    
Growing Degree Days 26 (Base 50)    
Moisture  
Dew Point 62 °F    
Average Humidity 64    
Maximum Humidity 79    
Minimum Humidity 48    
Precipitation  
Precipitation 0.00 in - - ()
Sea Level Pressure  
Sea Level Pressure 30.01 in    
Wind  
Wind Speed 10 mph (North)    
Max Wind Speed 16 mph    
Max Gust Speed 22 mph    
Visibility 10 miles    
Events      
Averages and records for this station are not official NWS values.
T = Trace of Precipitation, MM = Missing Value Source: NWS Daily Summary

Daily Weather History Graph

Daily Weather History Graph

Search for Another Location

Airport or City:

Trip Planner

Search our weather history database for the weather conditions in past years. The results will help you decide how hot, cold, wet, or windy it might be!

Date:

Astronomy

Oct. 24, 2011 Rise Set
Actual Time 7:25 AM EDT 6:46 PM EDT
Civil Twilight 7:01 AM EDT 7:09 PM EDT
Nautical Twilight 6:34 AM EDT 7:36 PM EDT
Astronomical Twilight 6:07 AM EDT 8:03 PM EDT
Moon 4:53 AM EDT (10/24) 5:02 PM EDT (10/24)
Length of Visible Light 12h 08m
Length of Day
11h 21m
Waning Crescent, 7% of the Moon is Illuminated
Oct 24
Waning Crescent
Oct 26
New
Nov 2
First Quarter
Nov 10
Full
Nov 18
Last Quarter

Hourly Weather History & Observations

Time (EDT) Temp. Heat Index Dew Point Humidity Pressure Visibility Wind Dir Wind Speed Gust Speed Precip Events Conditions
12:53 AM 73.4 °F - 66.2 °F 78% 29.98 in 10.0 mi North 6.9 mph - N/A   Overcast
1:53 AM 73.0 °F - 66.0 °F 79% 29.97 in 10.0 mi North 6.9 mph - N/A   Overcast
2:53 AM 73.0 °F - 66.0 °F 79% 29.96 in 10.0 mi North 9.2 mph - N/A   Overcast
3:53 AM 73.0 °F - 66.0 °F 79% 29.95 in 10.0 mi North 8.1 mph - N/A   Overcast
4:53 AM 73.0 °F - 66.0 °F 79% 29.96 in 10.0 mi NNW 8.1 mph - N/A   Overcast
5:53 AM 72.0 °F - 64.0 °F 76% 29.96 in 10.0 mi North 10.4 mph - N/A   Overcast
6:53 AM 72.0 °F - 63.0 °F 73% 29.98 in 10.0 mi North 12.7 mph - N/A   Overcast
7:53 AM 71.6 °F - 62.6 °F 73% 29.99 in 10.0 mi North 10.4 mph - N/A   Overcast
8:53 AM 73.0 °F - 63.0 °F 71% 30.01 in 10.0 mi North 11.5 mph - N/A   Overcast
9:53 AM 75.0 °F - 63.0 °F 66% 30.04 in 10.0 mi North 11.5 mph - N/A   Overcast
10:53 AM 77.0 °F - 62.1 °F 60% 30.05 in 10.0 mi North 15.0 mph - N/A   Overcast
11:53 AM 79.0 °F - 63.0 °F 58% 30.04 in 10.0 mi North 16.1 mph 21.9 mph N/A   Mostly Cloudy
12:53 PM 82.9 °F 83.7 °F 62.1 °F 49% 30.02 in 10.0 mi North 13.8 mph 19.6 mph N/A   Scattered Clouds
1:53 PM 82.0 °F 82.7 °F 61.0 °F 49% 30.01 in 10.0 mi North 13.8 mph 21.9 mph N/A   Mostly Cloudy
2:53 PM 82.0 °F 82.7 °F 61.0 °F 49% 29.99 in 10.0 mi North 15.0 mph - N/A   Mostly Cloudy
3:53 PM 82.0 °F 83.0 °F 62.1 °F 51% 29.99 in 10.0 mi North 10.4 mph 19.6 mph N/A   Mostly Cloudy
4:53 PM 80.1 °F 80.9 °F 60.1 °F 50% 29.98 in 10.0 mi North 15.0 mph - N/A   Overcast
5:53 PM 79.0 °F - 57.9 °F 48% 30.00 in 10.0 mi North 11.5 mph - N/A   Overcast
6:53 PM 77.0 °F - 57.9 °F 52% 30.00 in 10.0 mi North 10.4 mph - N/A   Overcast
7:53 PM 75.2 °F - 59.0 °F 57% 30.03 in 10.0 mi North 10.4 mph - N/A   Mostly Cloudy
8:53 PM 75.0 °F - 59.0 °F 57% 30.05 in 10.0 mi NE 8.1 mph - N/A   Partly Cloudy
9:53 PM 73.0 °F - 59.0 °F 61% 30.07 in 10.0 mi NNE 8.1 mph - N/A   Clear
10:53 PM 71.1 °F - 59.0 °F 66% 30.07 in 10.0 mi North 8.1 mph - N/A   Clear
11:53 PM 71.1 °F - 61.0 °F 70% 30.08 in 10.0 mi North 8.1 mph - N/A   Clear